Houston / Southwest Airport, TX

5:32 PM CDT on March 23, 2017 (GMT -0500)
Houston-Southwest

Weather History for KAXH - November, 2012

Change the Weather History Date:

Tuesday, November 27, 2012

  Actual Average (KSGR) Record (KSGR)
Temperature  
Mean Temperature 56 °F -  
Max Temperature 69 °F 71 °F 86 °F (1967)
Min Temperature 42 °F 50 °F 26 °F (1993)
Degree Days  
Heating Degree Days 10    
Growing Degree Days 6 (Base 50)    
Moisture  
Dew Point 49 °F    
Average Humidity 76    
Maximum Humidity 98    
Minimum Humidity 64    
Precipitation  
Precipitation 0.00 in - - ()
Sea Level Pressure  
Sea Level Pressure 30.25 in    
Wind  
Wind Speed 8 mph (NNW)    
Max Wind Speed 14 mph    
Max Gust Speed 23 mph    
Visibility 9 miles    
Events Rain    
Averages and records for this station are not official NWS values.
T = Trace of Precipitation, MM = Missing Value Source: NWS Daily Summary

Daily Weather History Graph

Daily Weather History Graph

Search for Another Location

Airport or City:

Trip Planner

Search our weather history database for the weather conditions in past years. The results will help you decide how hot, cold, wet, or windy it might be!

Date:

Astronomy

Nov. 27, 2012 Rise Set
Actual Time 6:56 AM CST 5:22 PM CST
Civil Twilight 6:30 AM CST 5:48 PM CST
Nautical Twilight 6:01 AM CST 6:17 PM CST
Astronomical Twilight 5:32 AM CST 6:46 PM CST
Moon 4:54 PM CST (11/27) 6:03 AM CST (11/27)
Length of Visible Light 11h 18m
Length of Day
10h 26m
Waxing Gibbous, 99% of the Moon is Illuminated
Nov 27
Waxing Gibbous
Nov 28
Full
Dec 6
Last Quarter
Dec 13
New
Dec 19
First Quarter

Hourly Weather History & Observations

Time (CST) Temp. Dew Point Humidity Pressure Visibility Wind Dir Wind Speed Gust Speed Precip Events Conditions
12:15 AM 69.1 °F 66.9 °F 93% 30.07 in 10.0 mi NNE 4.6 mph - N/A   Overcast
12:35 AM 67.5 °F 60.3 °F 78% 30.08 in 10.0 mi North 8.1 mph - N/A   Overcast
12:55 AM 66.4 °F 60.4 °F 81% 30.09 in 10.0 mi North 5.8 mph - N/A   Overcast
1:15 AM 65.5 °F 60.1 °F 83% 30.09 in 10.0 mi NW 6.9 mph - N/A   Overcast
1:35 AM 64.4 °F 56.8 °F 76% 30.10 in 10.0 mi NNW 13.8 mph 19.6 mph N/A   Overcast
1:55 AM 63.1 °F 53.4 °F 71% 30.10 in 10.0 mi NNW 12.7 mph 23.0 mph N/A   Scattered Clouds
2:15 AM 62.2 °F 52.2 °F 70% 30.11 in 10.0 mi NNW 11.5 mph 17.3 mph N/A   Clear
2:35 AM 61.3 °F 52.0 °F 71% 30.10 in 10.0 mi NNW 13.8 mph 19.6 mph N/A   Clear
2:55 AM 60.3 °F 51.3 °F 72% 30.11 in 10.0 mi NNW 13.8 mph 20.7 mph N/A   Scattered Clouds
3:15 AM 59.5 °F 50.7 °F 73% 30.11 in 10.0 mi NNW 12.7 mph 21.9 mph N/A   Clear
3:35 AM 59.0 °F 49.5 °F 71% 30.13 in 10.0 mi NNW 12.7 mph 20.7 mph N/A   Clear
3:55 AM 58.3 °F 49.1 °F 71% 30.14 in 10.0 mi NNW 6.9 mph - N/A   Scattered Clouds
4:15 AM 58.3 °F 48.7 °F 71% 30.14 in 10.0 mi NNW 9.2 mph - N/A   Clear
4:35 AM 58.1 °F 48.6 °F 71% 30.14 in 10.0 mi NNW 8.1 mph - N/A   Mostly Cloudy
4:55 AM 57.7 °F 48.2 °F 70% 30.15 in 10.0 mi NNW 6.9 mph - N/A   Overcast
5:15 AM 57.4 °F 48.2 °F 71% 30.17 in 10.0 mi NNW 6.9 mph - N/A   Overcast
5:55 AM 56.5 °F 47.8 °F 73% 30.20 in 10.0 mi NNW 8.1 mph - N/A   Overcast
6:15 AM 56.3 °F 47.7 °F 73% 30.21 in 10.0 mi North 10.4 mph - N/A   Overcast
6:35 AM 56.3 °F 47.7 °F 73% 30.23 in 10.0 mi NNW 11.5 mph 17.3 mph N/A   Overcast
6:55 AM 55.9 °F 47.5 °F 73% 30.24 in 7.0 mi NNW 10.4 mph - N/A   Overcast
7:15 AM 55.6 °F 47.3 °F 74% 30.25 in 7.0 mi NNW 9.2 mph - N/A   Overcast
7:35 AM 55.0 °F 47.7 °F 76% 30.25 in 7.0 mi North 9.2 mph 17.3 mph N/A Rain Light Rain
7:55 AM 55.0 °F 46.9 °F 74% 30.27 in 7.0 mi NNW 11.5 mph - N/A   Overcast
8:15 AM 53.8 °F 47.5 °F 79% 30.28 in 7.0 mi NNW 10.4 mph 16.1 mph N/A Rain Light Rain
8:35 AM 53.6 °F 47.3 °F 79% 30.28 in 7.0 mi North 12.7 mph - N/A Rain Light Rain
8:55 AM 53.6 °F 47.3 °F 79% 30.29 in 7.0 mi North 10.4 mph 16.1 mph N/A   Light Drizzle
9:15 AM 53.6 °F 46.6 °F 77% 30.30 in 7.0 mi North 11.5 mph - N/A   Overcast
9:35 AM 54.0 °F 46.4 °F 76% 30.30 in 7.0 mi North 13.8 mph 19.6 mph N/A   Overcast
9:55 AM 54.5 °F 45.7 °F 72% 30.32 in 7.0 mi NNW 13.8 mph 19.6 mph N/A   Overcast
10:15 AM 54.7 °F 45.9 °F 72% 30.32 in 7.0 mi NNW 11.5 mph 20.7 mph N/A   Overcast
10:35 AM 55.4 °F 46.6 °F 72% 30.31 in 10.0 mi NNW 8.1 mph 18.4 mph N/A   Overcast
10:55 AM 55.8 °F 46.8 °F 72% 30.31 in 7.0 mi North 11.5 mph 19.6 mph N/A   Overcast
11:15 AM 56.8 °F 47.1 °F 70% 30.30 in 7.0 mi North 11.5 mph 19.6 mph N/A   Overcast
11:35 AM 57.2 °F 47.5 °F 70% 30.30 in 7.0 mi North 9.2 mph 16.1 mph N/A   Overcast
11:55 AM 58.6 °F 47.8 °F 67% 30.29 in 10.0 mi North 10.4 mph 19.6 mph N/A   Overcast
12:15 PM 59.0 °F 48.2 °F 67% 30.29 in 10.0 mi North 11.5 mph - N/A   Overcast
12:35 PM 59.9 °F 48.4 °F 66% 30.28 in 10.0 mi North 9.2 mph - N/A   Overcast
12:55 PM 59.9 °F 48.4 °F 66% 30.27 in 10.0 mi North 9.2 mph - N/A   Overcast
1:15 PM 61.2 °F 48.7 °F 64% 30.26 in 10.0 mi North 9.2 mph - N/A   Overcast
1:35 PM 60.8 °F 48.6 °F 64% 30.26 in 10.0 mi NNW 11.5 mph 16.1 mph N/A   Overcast
2:15 PM 61.2 °F 49.1 °F 65% 30.25 in 10.0 mi North 10.4 mph 18.4 mph N/A   Overcast
2:35 PM 61.5 °F 49.1 °F 64% 30.25 in 10.0 mi North 12.7 mph 19.6 mph N/A   Overcast
2:55 PM 61.3 °F 49.5 °F 65% 30.25 in 10.0 mi North 10.4 mph 17.3 mph N/A   Overcast
3:15 PM 61.7 °F 49.6 °F 65% 30.25 in 10.0 mi NNE 8.1 mph - N/A   Overcast
3:35 PM 61.7 °F 49.6 °F 65% 30.26 in 10.0 mi North 6.9 mph - N/A   Overcast
3:55 PM 60.8 °F 49.3 °F 66% 30.27 in 10.0 mi NNW 9.2 mph - N/A   Overcast
4:15 PM 60.1 °F 49.1 °F 67% 30.27 in 10.0 mi North 8.1 mph - N/A   Overcast
4:35 PM 59.5 °F 48.9 °F 68% 30.27 in 10.0 mi North 9.2 mph - N/A   Overcast
4:55 PM 59.0 °F 48.6 °F 68% 30.29 in 10.0 mi NNW 6.9 mph - N/A   Overcast
5:15 PM 58.3 °F 48.6 °F 70% 30.29 in 10.0 mi North 10.4 mph - N/A   Overcast
5:55 PM 56.8 °F 48.6 °F 74% 30.30 in 10.0 mi North 4.6 mph - N/A   Overcast
6:15 PM 57.2 °F 48.4 °F 72% 30.31 in 10.0 mi North 5.8 mph - N/A   Overcast
6:35 PM 56.5 °F 48.4 °F 74% 30.32 in 10.0 mi North 3.5 mph - N/A   Overcast
6:55 PM 54.9 °F 47.7 °F 77% 30.33 in 10.0 mi North 3.5 mph - N/A   Mostly Cloudy
7:15 PM 53.8 °F 47.5 °F 79% 30.33 in 10.0 mi North 3.5 mph - N/A   Scattered Clouds
7:35 PM 53.4 °F 47.3 °F 80% 30.34 in 10.0 mi North 4.6 mph - N/A   Clear
7:55 PM 53.4 °F 47.1 °F 79% 30.34 in 10.0 mi Calm Calm - N/A   Clear
8:15 PM 51.4 °F 46.4 °F 83% 30.34 in 10.0 mi Calm Calm - N/A   Clear
8:35 PM 50.9 °F 46.4 °F 85% 30.33 in 10.0 mi Calm Calm - N/A   Clear
8:55 PM 50.4 °F 46.4 °F 86% 30.33 in 10.0 mi Calm Calm - N/A   Clear
9:15 PM 49.8 °F 45.9 °F 86% 30.33 in 10.0 mi Calm Calm - N/A   Clear
9:35 PM 47.1 °F 45.7 °F 95% 30.33 in 7.0 mi Calm Calm - N/A   Clear
9:55 PM 44.2 °F 43.0 °F 95% 30.34 in 5.0 mi Calm Calm - N/A   Clear
10:15 PM 45.5 °F 44.6 °F 97% 30.34 in 3.0 mi Calm Calm - N/A   Clear
10:35 PM 44.1 °F 43.2 °F 97% 30.35 in 5.0 mi Calm Calm - N/A   Clear
10:55 PM 42.8 °F 42.1 °F 97% 30.35 in 1.2 mi Calm Calm - N/A   Mist
11:15 PM 43.9 °F 43.3 °F 98% 30.35 in 5.0 mi Calm Calm - N/A   Clear
11:55 PM 42.6 °F 42.1 °F 98% 30.35 in 0.8 mi Calm Calm - N/A   Mist